This is the latest recevied weather packets stored in our database for station/object WB6ANP. If no packets are shown the sender has not sent any weather packets the latest 10 day(s).
| Time | Temp. | Humidity | Pressure | Rain* | Wind** | Luminosity | Snow |
|---|---|---|---|---|---|---|---|
| 1777381490 | 24.44° C | 89% | 1011.5 hPa | 0 mm | - | 84 W/m² | - |
| 1777381187 | 24.44° C | 89% | 1011.3 hPa | 0 mm | - | 61 W/m² | - |
| 1777380884 | 24.44° C | 89% | 1011.4 hPa | 0 mm | - | 32 W/m² | - |
| 1777380582 | 23.89° C | 89% | 1011.4 hPa | 0 mm | - | 23 W/m² | - |
| 1777380277 | 23.89° C | 89% | 1011.5 hPa | 0 mm | - | 23 W/m² | - |
| 1777379973 | 23.89° C | 89% | 1011.3 hPa | 0 mm | - | 31 W/m² | - |
| 1777379669 | 23.89° C | 89% | 1011.1 hPa | 0 mm | - | 34 W/m² | - |
| 1777379365 | 23.89° C | 89% | 1011 hPa | 0 mm | - | 30 W/m² | - |
| 1777379061 | 23.89° C | 89% | 1010.8 hPa | 0 mm | - | 20 W/m² | - |
| 1777378755 | 23.89° C | 89% | 1010.7 hPa | 0 mm | - | 15 W/m² | - |
| 1777378453 | 24.44° C | 88% | 1010.7 hPa | 0 mm | - | 12 W/m² | - |
| 1777378148 | 24.44° C | 88% | 1010.5 hPa | 0 mm | - | 9 W/m² | - |
| 1777377847 | 24.44° C | 88% | 1010.5 hPa | 0 mm | - | 6 W/m² | - |
| 1777377547 | 24.44° C | 88% | 1010.5 hPa | 0 mm | - | 4 W/m² | - |
| 1777377242 | 24.44° C | 88% | 1010.5 hPa | 0 mm | - | 2 W/m² | - |
| 1777376940 | 24.44° C | 88% | 1010.6 hPa | 0 mm | - | 1 W/m² | - |
| 1777376636 | 24.44° C | 88% | 1010.4 hPa | 0 mm | - | 1 W/m² | - |
| 1777376334 | 24.44° C | 88% | 1010.2 hPa | 0 mm | - | 0 W/m² | - |
| 1777376029 | 24.44° C | 89% | 1010 hPa | 0 mm | - | 0 W/m² | - |
| 1777375728 | 24.44° C | 89% | 1010 hPa | 0 mm | - | 0 W/m² | - |
| 1777375424 | 24.44° C | 89% | 1010.1 hPa | 0 mm | - | 0 W/m² | - |
| 1777375122 | 24.44° C | 89% | 1010.1 hPa | 0 mm | - | 0 W/m² | - |
| 1777374820 | 24.44° C | 89% | 1010.1 hPa | 0 mm | - | 0 W/m² | - |
| 1777374517 | 24.44° C | 89% | 1010.2 hPa | 0 mm | - | 0 W/m² | - |
| 1777374214 | 24.44° C | 90% | 1010.2 hPa | 0 mm | - | 0 W/m² | - |
* Rain latest hour (hover to see other rain measurements)
** Current wind speed in m/s (hover to see current wind gust speed)